Milan, Italy

9:15 PM CEST on June 23, 2017 (GMT +0200)
Malpensa

Weather History for LIMC - December, 2012

Change the Weather History Date:

Saturday, December 22, 2012

  Actual Average Record
Temperature  
Mean Temperature 27 °F -  
Max Temperature 33 °F 43 °F 53 °F (2015)
Min Temperature 21 °F 25 °F 12 °F (2001)
Degree Days  
Heating Degree Days 38    
Moisture  
Dew Point 27 °F    
Average Humidity 100    
Maximum Humidity 100    
Minimum Humidity 93    
Precipitation  
Precipitation 0.00 in 0.08 in - ()
Sea Level Pressure  
Sea Level Pressure 30.10 in    
Wind  
Wind Speed 1 mph ()    
Max Wind Speed 2 mph    
Max Gust Speed -    
Visibility 0.6 miles    
Events Fog    
Averages and records for this station are not official NWS values.
T = Trace of Precipitation, MM = Missing Value Source: Averaged Metar Reports

Daily Weather History Graph

Daily Weather History Graph

Search for Another Location

Airport or City:

Trip Planner

Search our weather history database for the weather conditions in past years. The results will help you decide how hot, cold, wet, or windy it might be!

Date:

Astronomy

Dec. 22, 2012 Rise Set
Actual Time 8:03 AM CET 4:44 PM CET
Civil Twilight 7:28 AM CET 5:18 PM CET
Nautical Twilight 6:51 AM CET 5:56 PM CET
Astronomical Twilight 6:14 AM CET 6:32 PM CET
Moon 1:02 PM CET (12/22) 2:22 AM CET (12/22)
Length of Visible Light 9h 50m
Length of Day
8h 41m
Waxing Gibbous, 71% of the Moon is Illuminated
Dec 22
Waxing Gibbous
Dec 28
Full
Jan 5
Last Quarter
Jan 11
New
Jan 19
First Quarter

Hourly Weather History & Observations

Time (CET) Temp. Dew Point Humidity Pressure Visibility Wind Dir Wind Speed Gust Speed Precip Events Conditions
12:20 AM 24.8 °F 24.8 °F 100% 30.04 in 1.1 mi Calm Calm - N/A   Mist
12:50 AM 23.0 °F 23.0 °F 100% 30.04 in 1.1 mi Calm Calm - N/A   Mist
1:20 AM 21.2 °F 21.2 °F 100% 30.04 in 1.1 mi Variable 1.2 mph - N/A   Mist
1:50 AM 23.0 °F 21.2 °F 93% 30.04 in 1.1 mi Calm Calm - N/A   Mist
2:20 AM 23.0 °F 21.2 °F 93% 30.06 in 1.1 mi Variable 1.2 mph - N/A   Mist
2:50 AM 21.2 °F 21.2 °F 100% 30.06 in 1.1 mi NW 2.3 mph - N/A   Mist
3:20 AM 21.2 °F 21.2 °F 100% 30.06 in 1.1 mi Calm Calm - N/A   Mist
3:50 AM 23.0 °F 23.0 °F 100% 30.06 in 1.1 mi Calm Calm - N/A   Mist
4:20 AM 23.0 °F 23.0 °F 100% 30.06 in 1.1 mi Calm Calm - N/A   Mist
4:50 AM 21.2 °F 19.4 °F 93% 30.06 in 1.1 mi SSW 1.2 mph - N/A   Mist
5:20 AM 21.2 °F 21.2 °F 100% 30.06 in 0.4 mi Variable 1.2 mph - N/A Fog Patches of Fog
5:50 AM 21.2 °F 21.2 °F 100% 30.06 in 0.2 mi SSE 1.2 mph - N/A Fog Patches of Fog
6:20 AM 21.2 °F 21.2 °F 100% 30.09 in 0.2 mi Calm Calm - N/A Fog Patches of Fog
6:50 AM 23.0 °F 23.0 °F 100% 30.09 in 0.1 mi Calm Calm - N/A Fog Light Freezing Fog
7:20 AM 23.0 °F 23.0 °F 100% 30.09 in 0.1 mi Calm Calm - N/A Fog Light Freezing Fog
7:50 AM 23.0 °F 23.0 °F 100% 30.09 in 0.1 mi Calm Calm - N/A Fog Light Freezing Fog
8:20 AM 23.0 °F 23.0 °F 100% 30.12 in 0.1 mi Variable 1.2 mph - N/A Fog Light Freezing Fog
8:50 AM 23.0 °F 23.0 °F 100% 30.12 in 0.1 mi Variable 1.2 mph - N/A Fog Light Freezing Fog
9:20 AM 24.8 °F 24.8 °F 100% 30.12 in 0.1 mi Calm Calm - N/A Fog Light Freezing Fog
9:50 AM 24.8 °F 24.8 °F 100% 30.12 in 0.1 mi Variable 2.3 mph - N/A Fog Light Freezing Fog
10:20 AM 24.8 °F 24.8 °F 100% 30.15 in 0.1 mi Variable 1.2 mph - N/A Fog Light Freezing Fog
10:50 AM 26.6 °F 26.6 °F 100% 30.15 in 0.1 mi Calm Calm - N/A Fog Light Freezing Fog
11:20 AM 26.6 °F 26.6 °F 100% 30.15 in 0.1 mi Calm Calm - N/A Fog Light Freezing Fog
11:50 AM 28.4 °F 28.4 °F 100% 30.12 in 0.1 mi Variable 1.2 mph - N/A Fog Light Freezing Fog
12:20 PM 28.4 °F 28.4 °F 100% 30.12 in 0.1 mi Variable 1.2 mph - N/A Fog Light Freezing Fog
12:50 PM 30.2 °F 30.2 °F 100% 30.15 in 0.1 mi Variable 1.2 mph - N/A Fog Light Freezing Fog
1:20 PM 32.0 °F 32.0 °F 100% 30.12 in 0.1 mi Variable 1.2 mph - N/A Fog Light Freezing Fog
1:50 PM 32.0 °F 32.0 °F 100% 30.12 in 0.2 mi Variable 1.2 mph - N/A Fog Light Freezing Fog
2:20 PM 32.0 °F 32.0 °F 100% 30.12 in 0.2 mi SW 1.2 mph - N/A Fog Light Freezing Fog
2:50 PM 32.0 °F 32.0 °F 100% 30.09 in 0.4 mi Calm Calm - N/A Fog Light Freezing Fog
3:20 PM 32.0 °F 32.0 °F 100% 30.12 in 0.5 mi Calm Calm - N/A Fog Fog
3:50 PM 32.0 °F 32.0 °F 100% 30.12 in 0.2 mi SW 1.2 mph - N/A Fog Fog
4:20 PM 32.0 °F 32.0 °F 100% 30.09 in 0.6 mi Calm Calm - N/A Fog Light Freezing Fog
4:50 PM 32.0 °F 32.0 °F 100% 30.12 in 0.7 mi SSW 1.2 mph - N/A   Overcast
5:20 PM 32.0 °F 32.0 °F 100% 30.12 in 0.7 mi SW 1.2 mph - N/A   Mostly Cloudy
5:50 PM 32.0 °F 32.0 °F 100% 30.12 in 1.1 mi Calm Calm - N/A   Mostly Cloudy
6:20 PM 32.0 °F 32.0 °F 100% 30.12 in 1.1 mi Calm Calm - N/A   Mostly Cloudy
6:50 PM 32.0 °F 32.0 °F 100% 30.12 in 1.1 mi NNW 1.2 mph - N/A   Mostly Cloudy
7:20 PM 30.2 °F 30.2 °F 100% 30.12 in 1.6 mi Calm Calm - N/A   Mostly Cloudy
7:50 PM 32.0 °F 32.0 °F 100% 30.12 in 1.6 mi Variable 1.2 mph - N/A   Mostly Cloudy
8:20 PM 33.8 °F 33.8 °F 100% 30.12 in 1.6 mi Variable 1.2 mph - N/A   Mostly Cloudy
8:50 PM 30.2 °F 30.2 °F 100% 30.09 in 1.6 mi Calm Calm - N/A   Mostly Cloudy
9:20 PM 30.2 °F 30.2 °F 100% 30.12 in 0.9 mi Calm Calm - N/A   Mostly Cloudy
9:50 PM 28.4 °F 28.4 °F 100% 30.12 in 0.5 mi Calm Calm - N/A Fog Light Freezing Fog
10:20 PM 26.6 °F 26.6 °F 100% 30.12 in 0.2 mi SSW 2.3 mph - N/A Fog Light Freezing Fog
10:50 PM 28.4 °F 28.4 °F 100% 30.12 in 0.2 mi South 1.2 mph - N/A Fog Light Freezing Fog
11:20 PM 30.2 °F 30.2 °F 100% 30.12 in 0.1 mi Calm Calm - N/A Fog Light Freezing Fog
11:50 PM 30.2 °F 30.2 °F 100% 30.12 in 0.1 mi Calm Calm - N/A Fog Light Freezing Fog